Regional Weather Roundup
Issued by NWS

Home | Current Version | Previous Version | Graphics & Text | Print | Product List | Glossary On
Versions: 1 2 3 4 5 6 7 8 9 10 11 12 13 14 15 16 17 18 19 20 21 22 23 24 25 26 27 28 29 30 31 32 33 34 35 36 37 38 39 40 41 42 43 44 45 46 47 48 49 50
000
ASUS45 KCYS 170110
RWRWY

WYOMING REGIONAL WEATHER ROUNDUP
NATIONAL WEATHER SERVICE CHEYENNE WY
600 PM MST MON JAN 16 2017

NOTE:  "FAIR" INDICATES FEW OR NO CLOUDS BELOW 12,000 FEET
WITH NO SIGNIFICANT WEATHER AND/OR OBSTRUCTIONS TO VISIBILITY.

WYZ001-170200-
YELLOWSTONE NATIONAL PARK

CITY           SKY/WX    TMP DP  RH WIND       PRES   REMARKS
LK YELLOWSTONE   N/A     -1  -3  91 CALM      30.17R
W YELLOWSTONE  NOT AVBL

$$
WYZ002>013-054>058-071-098>099-170200-
NORTHERN WYOMING

CITY           SKY/WX    TMP DP  RH WIND       PRES   REMARKS
JACKSON        CLEAR     -2  -6  84 CALM      30.21R
CODY           FAIR      12   5  73 S5        30.08F WCI   4
GREYBULL       FAIR      -5 -11  75 CALM      30.16S
WORLAND        FAIR       2  -2  83 NE3       30.14R
SHERIDAN       FAIR      17   6  62 S3        30.09S
BUFFALO        FAIR      26   8  46 SW7       30.10S WCI  18
GILLETTE       FAIR      20  10  65 SW8       30.10S WCI  10
HULETT         FAIR      23  10  58 S13       30.11F WCI  11
NEWCASTLE      FAIR      25  12  58 NW8       30.11R WCI  16

$$
WYZ014>020-022>026-101>103-170200-
CENTRAL WYOMING

CITY           SKY/WX    TMP DP  RH WIND       PRES   REMARKS
BIG PINEY      FAIR      -3  -8  79 CALM      30.16R
PINEDALE       FAIR      -6 -11  77 E6        30.16R WCI -18
DUBOIS         NOT AVBL
LANDER         FAIR      10   3  73 CALM      30.12R
RIVERTON       FAIR       0  -3  87 NW6       30.13S WCI -12
CASPER         FAIR      21   9  59 SW7       30.11R WCI  12
DOUGLAS        FAIR      26  12  55 W3        30.12R

$$
WYZ021-027>030-104>119-170200-
SOUTHERN WYOMING

CITY           SKY/WX    TMP DP  RH WIND       PRES   REMARKS
EVANSTON       FAIR       6   1  80 E3        30.17R
ROCK SPRINGS   FAIR       2  -3  80 W3        30.17R
RAWLINS        FAIR       4  -2  76 CALM      30.13S
LARAMIE        FAIR      17  10  74 CALM      30.09R
CHEYENNE       FAIR      29  14  53 NW9       30.08R WCI  20
TORRINGTON     FAIR      33  15  47 N7        30.09R WCI  27

$$



USA.gov is the U.S. government's official web portal to all federal, state and local government web resources and services.